Weather in Tpig

Russia / Republic of Dagestan     41°46′51″N   47°35′32″E
temp.,
°C
wind,
m/s
gust,
m/s
humid.,
%
clouds,
%
prec.,
mm/h
press.,
hPa
HPBL,
m
19 june, sat
sat1900:00+8w22760 0.0 102211
03:00+8w11735 0.0 102210
06:00+11sse11680 0.0 102286
09:00+16se33460 0.0 1020889
12:00+19se44400 0.0 10191464
15:00+18se54480 0.0 10181315
18:00+15sse44700 0.0 1020433
21:00+10sw22810 0.0 102213
20 june, sun
sun2000:00+9wsw226572 0.0 102211
03:00+9wsw225343 0.0 102113
06:00+12wsw335289 0.0 102061
09:00+18ssw333498 0.0 1018635
12:00+21s343425 0.0 10171446
15:00+21s34390 0.0 10171452
18:00+17s33604 0.0 1018157
21:00+11wsw22643 0.0 102114
21 june, mon
mon2100:00+10wsw32610 0.0 102116
03:00+9wsw33580 0.0 102123
06:00+13wsw22570 0.0 102063
09:00+19s22350 0.0 1017820
12:00+21sse44360 0.0 10161439
15:00+20s44430 0.0 10161307
18:00+18ssw23580 0.0 1017197
21:00+11w32640 0.0 102114
22 june, tue
tue2200:00+11w32570 0.0 102015
03:00+10w33440 0.0 102018
06:00+14w32460 0.0 101938
09:00+21s22310 0.0 1016750
12:00+22sse34340 0.0 10161515
15:00+21sse43400 0.0 10171162
18:00+18ssw33550 0.0 1018158
21:00+11w22610 0.0 102214
23 june, wed
wed2300:00+11wsw22540 0.0 102113
03:00+10wsw33460 0.0 102121
06:00+14wsw32450 0.0 102040
09:00+21s23300 0.0 1017693
12:00+23sse44320 0.0 10171277
15:00+22s44360 0.0 10161278
18:00+19sw33540 0.0 1018137
21:00+12w33520 0.0 102218